Regional Weather Roundup
Issued by NWS Green Bay, WI

Home | Current Version | Previous Version | Graphics & Text | Print | Product List | Glossary Off
Versions: 1 2 3 4 5 6 7 8 9 10 11 12 13 14 15 16 17 18 19 20 21 22 23 24 25 26 27 28 29 30 31 32 33 34 35 36 37 38 39 40 41 42 43 44 45 46 47 48 49 50

000
ASUS43 KGRB 311700
RWRGRB

NORTH-CENTRAL AND NORTHEAST WISCONSIN REGIONAL WEATHER ROUNDUP
NATIONAL WEATHER SERVICE GREEN BAY WI
1200 PM CDT TUE MAY 31 2016

WIZ005-009-010>012-018-019-311800-
NORTH CENTRAL WISCONSIN

CITY           SKY/WX    TMP DP  RH WIND       PRES   REMARKS
IRONWOOD       CLOUDY    63  50  63 SE13G18     N/A
MANITOWISH WTR NOT AVBL
ARBOR VITAE    NOT AVBL
EAGLE RIVER    NOT AVBL
LAND O LAKES   NOT AVBL
RHINELANDER    CLOUDY    65  51  60 E14       30.02F
PHILLIPS       NOT AVBL
ANTIGO         NOT AVBL
TOMAHAWK       NOT AVBL
MERRILL        NOT AVBL
$$

WIZ013-073-311800-
NORTHEAST WISCONSIN

CITY           SKY/WX    TMP DP  RH WIND       PRES   REMARKS
IRON MOUNTAIN  CLOUDY    66  46  48 SE13      30.06F
MARINETTE      CLOUDY    57  47  69 NE14      30.09F
$$

WIZ017-030-035>037-045-311800-
CENTRAL WISCONSIN

CITY           SKY/WX    TMP DP  RH WIND       PRES   REMARKS
MEDFORD        NOT AVBL
WAUSAU         SUNNY     71  54  54 E14       29.98F
MOSINEE        SUNNY     70  57  64 E13       30.00F
MARSHFIELD     SUNNY     75  60  59 SE14      29.95F
WISC RAPIDS    SUNNY     77  56  48 S12G22    29.97F
STEVENS POINT  NOT AVBL
WAUPACA        NOT AVBL
SHAWANO        NOT AVBL
CLINTONVILLE   NOT AVBL
WAUTOMA        SUNNY    N/A N/A N/A E10       29.98F
$$

WIZ038-039-048-051-311800-
FOX VALLEY

CITY           SKY/WX    TMP DP  RH WIND       PRES   REMARKS
NWS GREEN BAY  SUNNY     66  54  65 NE16      30.05S
APPLETON       MOSUNNY   70  52  52 E9G16     30.01F
OSHKOSH        MOSUNNY   70  58  65 E12       30.00F
FOND DU LAC    MOSUNNY   74  55  51 SE12      30.00F
$$

WIZ022-050-052-311800-
EAST CENTRAL WISCONSIN

CITY           SKY/WX    TMP DP  RH WIND       PRES   REMARKS
EPHRAIM        NOT AVBL
STURGEON BAY   NOT AVBL
MANITOWOC      NOT AVBL
SHEBOYGAN      SUNNY     64  54  69 NE7       30.04F
$$

LMZ563-521-522-541>543-311800-
LAKESHORE

STATION/POSITION TIME  TEMP    WIND        PRES    VSBY  WAVE
                       AIR SEA DIR/SP/G                  HT/PER
                 (UTC) (F)     (DEG/KT/KT) (MB)    (MI)  (FT/S)
SHEBOYGAN LKSHOR 1600   49     350/ 13/ 14 1018.1R
KEWAUNEE LKSHORE 1600   51      20/ 11/ 17 1017.4R
ALGOMA MARINA    1617           60/ 14/ 18   N/A
NORTHPORT PIER   1600   51      80/  9/ 12 1019.3S
N MID LAKE BUOY  1550   47 47   40/  6/  8 1019.3R         1/ 4
SISTER BAY LKSHO 1605   60     110/  6/ 10   N/A
CHAMBERS ISLAND  1600   54      20/ 11/ 13 1019.3R
MENOMINEE LKSHOR 1600   53      10/ 11/ 14 1017.9F
$$




USA.gov is the U.S. government's official web portal to all federal, state and local government web resources and services.